Regional Weather Roundup
Issued by NWS Boston, MA

Home | Current Version | Previous Version | Text Only | Print | Product List | Glossary On
Versions: 1 2 3 4 5 6 7 8 9 10 11 12 13 14 15 16 17 18 19 20 21 22 23 24 25 26 27 28 29 30 31 32 33 34 35 36 37 38 39 40 41 42 43 44 45 46 47 48 49 50
000
ASUS41 KBOX 271110
RWRBOX

REGIONAL WEATHER ROUNDUP
NATIONAL WEATHER SERVICE TAUNTON MA
700 AM EDT MON APR 27 2015

NOTE:  "FAIR" INDICATES FEW OR NO CLOUDS BELOW 12,000 FEET WITH NO
SIGNIFICANT WEATHER AND/OR OBSTRUCTIONS TO VISIBILITY.  THE FOLLOWING
OBSERVATION LOCATIONS DO NOT REPORT PRESENT WEATHER...PROVINCETOWN...
SMITHFIELD...BLOCK ISLAND...KEENE...AND OXFORD.

MAZALL-271200-
EASTERN MASSACHUSETTS

CITY           SKY/WX    TMP DP  RH WIND       PRES   REMARKS
BOSTON         CLOUDY    49  34  56 NW9       29.61R
BEVERLY        CLOUDY    46  35  65 NW6       29.59S
LAWRENCE       CLOUDY    47  36  65 NW6       29.61S
BEDFORD        CLOUDY    46  34  62 NW6       29.60R
BLUE HILL        N/A     45  34  65 NW9       29.58S
NORWOOD        CLOUDY    44  38  79 CALM      29.61R
MARSHFIELD     PTSUNNY   45  36  70 W3        29.61S
PLYMOUTH       CLOUDY    44  36  73 NW6       29.60S
TAUNTON        CLOUDY    42  38  85 W3        29.60S
NEW BEDFORD    MOSUNNY   48  34  58 NW3       29.59S
$$

MAZALL-271200-
CAPE COD AND THE ISLANDS

CITY           SKY/WX    TMP DP  RH WIND       PRES   REMARKS
FALMOUTH       MOSUNNY   45  34  65 NW7       29.59S
HYANNIS        MOSUNNY   48  35  60 NW9       29.57S
CHATHAM        SUNNY     48  36  63 VRB7      29.59S
PROVINCETOWN   CLOUDY   N/A N/A N/A NW8       29.59S
NANTUCKET      MOSUNNY   50  39  66 NW8       29.59R
MARTHAS VNYRD  CLOUDY    48  37  65 NW6       29.60R
$$

MAZALL-271200-
CENTRAL AND WESTERN MASSACHUSETTS

CITY           SKY/WX    TMP DP  RH WIND       PRES   REMARKS
WORCESTER      CLOUDY    44  32  62 NW9       29.60R
FITCHBURG      CLOUDY    47  34  60 NW6       29.62R
ORANGE         CLOUDY    42  35  76 NW3       29.63R
SPRINGFIELD    CLOUDY    46  33  61 NW5       29.62R
WESTFIELD      CLOUDY    45  34  65 VRB3      29.63S
NORTH ADAMS    CLOUDY    43  34  70 W5        29.66R
PITTSFIELD     CLOUDY    40  33  76 W8        29.63S
$$

RIZALL-271200-
RHODE ISLAND

CITY           SKY/WX    TMP DP  RH WIND       PRES   REMARKS
PROVIDENCE     PTSUNNY   49  32  52 NW6       29.61R
NEWPORT        CLOUDY    48  36  63 NW6       29.60R
BLOCK ISLAND   CLOUDY    48  34  57 NW6       29.62R
WESTERLY       CLOUDY    49  33  54 VRB3      29.62S
$$

CTZALL-271200-
CONNECTICUT

CITY           SKY/WX    TMP DP  RH WIND       PRES   REMARKS
BRADLEY INTL   PTSUNNY   48  33  56 NW6       29.63S
HARTFORD       MOSUNNY   49  33  54 VRB7      29.64S
BRIDGEPORT     CLOUDY    50  34  54 N7        29.65R
DANBURY        CLOUDY    46  31  55 NW8       29.67R
GROTON         CLOUDY    49  33  54 NW7       29.62R
NEW HAVEN      PTSUNNY   49  33  54 NW7       29.64R
CHESTER        CLOUDY    46  32  57 NW7       29.63S
MERIDEN        CLOUDY    49  33  54 CALM      29.65R
WILLIMANTIC    PTSUNNY   49  33  54 NW5       29.63R
OXFORD         CLOUDY    45  30  57 N5        29.66R
$$

MEZ002-015-021-024-NHZ003-005-008-011-012-014-VTZ005-008-271200-
NORTHERN NEW ENGLAND

CITY           SKY/WX    TMP DP  RH WIND       PRES   REMARKS
PORTLAND ME    PTSUNNY   46  38  73 NW5       29.59S
BANGOR ME      LGT RAIN  40  38  93 NW10      29.56S
CONCORD NH     CLOUDY    46  36  68 NW6       29.61R
MANCHESTER NH  CLOUDY    47  35  63 N7        29.60R
NASHUA NH      MOSUNNY   47  35  63 NW3       29.61S
PORTSMOUTH NH  PTSUNNY   46  36  68 NW6       29.58R
JAFFREY NH     CLOUDY    43  34  70 N5        29.62R
KEENE NH       CLOUDY    45  36  70 N3        29.64R
BURLINGTON VT  LGT RAIN  42  38  85 N9        29.70R
MT. WASHINGTON BLWGSNOW  19  19 100 N32         N/A  VSB 0   WCI   0
$$

NYZ052-076-271200-
EASTERN NEW YORK

CITY           SKY/WX    TMP DP  RH WIND       PRES   REMARKS
ALBANY         PTSUNNY   45  34  65 NW3       29.69R
NEW YORK CITY  CLOUDY    49  32  52 NW8       29.67R
$$

ANZALL-271200-
MARINE OBSERVATIONS

STATION/POSITION TIME  TEMP    WIND        PRES    VSBY  WAVE
                       AIR SEA DIR/SP/G                  HT/PER
                 (UTC) (F)     (DEG/KT/KT) (MB)    (MI)  (FT/S)
BOSTON BUOY      1050   45 44  300/  6/  8 1002.2R         1/10
BUZZARDS BAY     1000          290/  7/  7 1002.9R
NANTUCKET SOUND  1050   47 46  310/  6/  8 1002.0R         1
MASS BAY-STELLWA 1004   44 43  300/  8/  8   N/A    1 7/8  1/11
ISLE OF SHOALS   1000   46     320/ 10/ 11 1001.3R
S OF BLOCK IS    1008      41                N/A           2/10
$$

......................KEY.........................
  SKY/WX - SKY CONDITION/PRESENT WEATHER
  TMP    - TEMPERATURE IN FAHRENHEIT
  DWPT   - DEWPOINT IN FAHRENHEIT
  RH     - RELATIVE HUMIDITY IN PERCENT
  WIND   - DIRECTION AND SPEED IN MPH
  PRES   - MEAN SEA LEVEL PRESSURE IN INCHES OF HG
  WCI    - WIND CHILL INDEX
  VSB    - VISIBILITY IN MILES
  HX     - HEAT INDEX
  TC     - TEMPERATURE IN CELSIUS
  VRB    - VARIABLE WIND DIRECTION
  N/A    - NOT AVAILABLE


USA.gov is the U.S. government's official web portal to all federal, state and local government web resources and services.